FW5164 Weather Reports


time (UTC)temp
C
wind
direction
speed
KPH
gust
KPH
rain 1hr
cm
rain 24hr
cm
rain mn
cm
humidity
%
barometer
mb
20260509135050 22 167 1.6 8.0 0.00 0.00 0.00 88 1011.4
20260509134553 22 0 1.6 6.4 0.00 0.00 0.00 91 1011.6
20260509134551 22 77 1.6 4.8 0.00 0.00 0.00 89 1011.3
20260509134052 22 0 1.6 4.8 0.00 0.00 0.00 90 1011.3
20260509133550 22 360 1.6 4.8 0.00 0.00 0.00 91 1011.4
20260509133106 22 0 1.6 11.3 0.00 0.00 0.00 92 1011.4
20260509133052 22 292 0.0 3.2 0.00 0.00 0.00 91 1011.4
20260509132549 22 309 1.6 11.3 0.00 0.00 0.00 92 1011.4
20260509132049 22 298 4.8 8.0 0.00 0.00 0.00 93 1011.4
20260509131551 22 340 4.8 8.0 0.00 0.00 0.00 93 1011.2
20260509131549 22 0 0.0 0.0 0.00 0.00 0.00 91 1011.1
20260509131049 22 327 3.2 8.0 0.00 0.00 0.00 93 1011.2
20260509130549 22 332 3.2 9.7 0.00 0.00 0.00 93 1011.1
20260509130056 22 313 3.2 9.7 0.00 0.00 0.00 93 1011.2
20260509125549 21 340 3.2 6.4 0.00 0.00 0.00 93 1011.0
20260509125049 21 325 3.2 6.4 0.00 0.00 0.00 93 1011.2
20260509124605 21 293 1.6 11.3 0.00 0.00 0.00 91 1011.4
20260509124553 21 325 3.2 6.4 0.00 0.00 0.00 93 1011.1
20260509124049 21 254 1.6 4.8 0.00 0.00 0.00 93 1011.2
20260509123549 21 0 1.6 4.8 0.00 0.00 0.00 94 1010.8
20260509123052 21 262 0.0 14.5 0.00 0.00 0.00 94 1010.8
20260509123049 21 355 4.8 9.7 0.00 0.00 0.00 91 1011.6
20260509122549 21 262 4.8 14.5 0.00 0.00 0.00 94 1011.0
20260509122049 21 226 6.4 16.1 0.00 0.00 0.00 94 1011.0
20260509121554 21 241 6.4 16.1 0.00 0.00 0.00 94 1011.0
20260509121551 21 302 3.2 11.3 0.00 0.00 0.00 91 1011.4
20260509121049 21 214 9.7 20.9 0.00 0.00 0.00 94 1011.0
20260509120551 21 198 9.7 22.5 0.00 0.00 0.00 94 1010.8
20260509120059 21 180 11.3 22.5 0.00 0.00 0.00 94 1010.8
20260509120055 21 269 3.2 11.3 0.00 0.00 0.00 91 1010.2
20260509115549 21 158 9.7 19.3 0.00 0.00 0.00 94 1010.2
20260509115049 21 167 9.7 27.4 0.00 0.00 0.00 94 1010.0
20260509114552 21 154 14.5 27.4 0.00 0.00 0.00 94 1009.9
20260509114549 21 211 6.4 11.3 0.00 0.00 0.00 91 1010.0
20260509114049 21 167 14.5 25.7 0.00 0.00 0.00 94 1009.8
20260509113548 21 157 12.9 25.7 0.00 0.00 0.00 94 1009.7
20260509113053 21 336 4.8 19.3 0.00 0.00 0.00 91 1010.4
20260509112550 21 154 9.7 24.1 0.00 0.00 0.00 94 1009.6
20260509112049 21 172 12.9 25.7 0.00 0.00 0.00 94 1009.6
20260509111553 21 250 6.4 22.5 0.00 0.00 0.00 90 1009.5
20260509111551 21 144 9.7 25.7 0.00 0.00 0.00 94 1009.6
20260509111049 21 158 8.0 27.4 0.00 0.00 0.00 94 1009.6
20260509110549 21 145 14.5 32.2 0.00 0.00 0.00 94 1009.3
20260509110053 21 226 11.3 24.1 0.00 0.00 0.00 90 1009.2
20260509105548 21 136 19.3 38.6 0.00 0.00 0.00 94 1008.9
20260509105049 21 133 19.3 38.6 0.00 0.00 0.00 94 1009.0
20260509104605 21 113 19.3 32.2 0.00 0.00 0.00 94 1008.9
20260509104553 21 230 6.4 19.3 0.00 0.00 0.00 90 1009.4
20260509104045 21 158 12.9 30.6 0.00 0.00 0.00 94 1009.4
20260509103549 21 144 14.5 30.6 0.00 0.00 0.00 94 1009.3
20260509103107 21 111 19.3 33.8 0.00 0.00 0.00 94 1009.4
20260509103048 21 230 12.9 22.5 0.00 0.00 0.00 90 1009.0
20260509102549 21 130 16.1 33.8 0.00 0.00 0.00 94 1009.3
20260509102049 21 131 16.1 32.2 0.00 0.00 0.00 94 1009.4
20260509101556 21 111 16.1 29.0 0.00 0.00 0.00 94 1009.4
20260509101550 21 241 9.7 16.1 0.00 0.00 0.00 89 1009.6
20260509101049 21 133 16.1 25.7 0.00 0.00 0.00 94 1009.3
20260509100549 21 141 16.1 27.4 0.00 0.00 0.00 94 1009.2
20260509100057 21 234 6.4 11.3 0.00 0.00 0.00 89 1010.1
20260509100051 20 132 17.7 27.4 0.00 0.00 0.00 93 1009.1
20260509095549 20 136 19.3 27.4 0.00 0.00 0.00 93 1009.2
20260509095048 20 88 14.5 20.9 0.00 0.00 0.00 92 1009.7
20260509094554 20 96 4.8 9.7 0.00 0.00 0.00 92 1010.4
20260509094049 20 149 3.2 8.0 0.00 0.00 0.00 92 1010.7
20260509093550 21 153 1.6 6.4 0.00 0.00 0.00 92 1010.6
20260509093051 21 149 1.6 8.0 0.00 0.00 0.00 92 1010.7
20260509093049 21 0 1.6 6.4 0.00 0.00 0.00 88 1010.7
20260509092551 21 149 3.2 8.0 0.00 0.00 0.00 92 1010.6
20260509092049 21 150 3.2 8.0 0.00 0.00 0.00 91 1011.1
20260509091555 21 146 3.2 6.4 0.00 0.00 0.00 91 1011.0
20260509091552 21 259 1.6 6.4 0.00 0.00 0.00 88 1011.0
20260509091049 21 148 3.2 6.4 0.00 0.00 0.00 91 1011.1
20260509090549 21 142 3.2 6.4 0.00 0.00 0.00 91 1011.1
20260509090057 21 232 0.0 4.8 0.00 0.00 0.00 88 1011.3
20260509085549 21 142 1.6 6.4 0.00 0.00 0.00 90 1011.4
20260509085046 21 141 3.2 8.0 0.00 0.00 0.00 90 1011.4
20260509084559 21 0 0.0 6.4 0.00 0.00 0.00 88 1011.4
20260509084047 21 140 3.2 6.4 0.00 0.00 0.00 90 1011.4
20260509083548 21 140 3.2 6.4 0.00 0.00 0.00 89 1011.4
20260509083054 21 140 1.6 4.8 0.00 0.00 0.00 89 1011.6
20260509083051 21 231 3.2 8.0 0.00 0.00 0.00 87 1011.4
20260509082545 21 140 0.0 3.2 0.00 0.00 0.00 89 1011.5
20260509082047 21 0 0.0 6.4 0.00 0.00 0.00 89 1011.6
20260509081556 21 140 1.6 11.3 0.00 0.00 0.00 89 1011.7
20260509081049 21 140 4.8 11.3 0.00 0.00 0.00 88 1011.4
20260509080545 21 137 6.4 11.3 0.00 0.00 0.00 88 1011.4
20260509080056 21 229 0.0 3.2 0.00 0.00 0.00 87 1011.8
20260509080054 21 97 3.2 6.4 0.00 0.00 0.00 88 1011.7
20260509075550 21 96 1.6 4.8 0.00 0.00 0.00 88 1012.1
20260509075049 21 79 1.6 3.2 0.00 0.00 0.00 88 1012.0
20260509074602 21 229 0.0 6.4 0.00 0.00 0.00 87 1011.9
20260509074558 21 79 0.0 1.6 0.00 0.00 0.00 88 1011.9
20260509074049 21 0 0.0 1.6 0.00 0.00 0.00 88 1012.0
20260509073549 21 0 0.0 3.2 0.00 0.00 0.00 88 1012.0
20260509073058 21 228 3.2 8.0 0.00 0.00 0.00 87 1012.0
20260509073052 21 0 0.0 3.2 0.00 0.00 0.00 88 1012.1
20260509072551 21 79 0.0 3.2 0.00 0.00 0.00 88 1012.1
20260509072048 21 79 0.0 3.2 0.00 0.00 0.00 88 1012.2
20260509071608 21 0 3.2 4.8 0.00 0.00 0.00 87 1011.9
20260509071555 21 79 1.6 3.2 0.00 0.00 0.00 88 1012.0
20260509071049 21 79 1.6 3.2 0.00 0.00 0.00 88 1011.9
20260509070552 21 0 0.0 3.2 0.00 0.00 0.00 88 1011.7
20260509070059 21 79 0.0 3.2 0.00 0.00 0.00 88 1011.7
20260509070051 21 174 1.6 4.8 0.00 0.00 0.00 87 1011.7
20260509065548 21 79 0.0 3.2 0.00 0.00 0.00 88 1011.6
20260509065048 21 79 0.0 3.2 0.00 0.00 0.00 88 1011.4
20260509064553 21 184 3.2 8.0 0.00 0.00 0.00 87 1011.2
20260509064551 21 0 0.0 1.6 0.00 0.00 0.00 88 1011.3
20260509064053 21 0 0.0 3.2 0.00 0.00 0.00 88 1011.4
20260509063549 21 0 0.0 6.4 0.00 0.00 0.00 88 1011.3
20260509063107 21 0 1.6 9.7 0.00 0.00 0.00 88 1011.1
20260509063052 21 170 0.0 9.7 0.00 0.00 0.00 87 1011.1
20260509062549 21 79 3.2 12.9 0.00 0.00 0.00 88 1010.9
20260509062049 21 83 4.8 12.9 0.00 0.00 0.00 87 1010.9
20260509061613 21 71 6.4 12.9 0.00 0.00 0.00 87 1011.0
20260509061558 21 198 3.2 6.4 0.00 0.00 0.00 87 1011.3
20260509061049 21 63 4.8 6.4 0.00 0.00 0.00 87 1011.3
20260509060551 21 22 3.2 4.8 0.00 0.00 0.00 87 1011.5
20260509060104 21 204 1.6 4.8 0.00 0.00 0.00 87 1011.7
20260509060058 21 352 1.6 8.0 0.00 0.00 0.00 87 1011.6
20260509055549 21 349 1.6 8.0 0.00 0.00 0.00 88 1011.6
20260509055048 21 338 4.8 8.0 0.00 0.00 0.00 88 1011.5
20260509054607 21 207 0.0 4.8 0.00 0.00 0.00 87 1011.8
20260509054555 21 332 3.2 9.7 0.00 0.00 0.00 88 1011.7
20260509054048 21 329 4.8 9.7 0.00 0.00 0.00 87 1011.7
20260509053550 21 325 4.8 9.7 0.00 0.00 0.00 87 1011.7
20260509053055 21 333 4.8 9.7 0.00 0.00 0.00 87 1011.6
20260509052549 21 344 4.8 6.4 0.00 0.00 0.00 87 1011.5
20260509052048 21 342 3.2 4.8 0.00 0.00 0.00 87 1011.4
20260509051556 21 338 1.6 4.8 0.00 0.00 0.00 87 1011.5
20260509051049 21 338 0.0 4.8 0.00 0.00 0.00 87 1011.4
20260509050549 21 338 1.6 8.0 0.00 0.00 0.00 87 1011.3
20260509050059 21 219 1.6 3.2 0.00 0.00 0.00 86 1011.8
20260509050054 21 337 3.2 8.0 0.00 0.00 0.00 87 1011.4
20260509045549 21 331 4.8 8.0 0.00 0.00 0.00 86 1011.3
20260509045049 21 10 3.2 4.8 0.00 0.00 0.00 86 1011.2
20260509044554 21 113 0.0 9.7 0.00 0.00 0.00 86 1011.3
20260509044052 21 113 3.2 9.7 0.00 0.00 0.00 86 1011.0
20260509043546 21 114 4.8 9.7 0.00 0.00 0.00 86 1011.0
20260509043051 21 131 3.2 8.0 0.00 0.00 0.00 86 1011.1
20260509043049 21 0 0.0 3.2 0.00 0.00 0.00 86 1011.2
20260509042549 21 132 3.2 8.0 0.00 0.00 0.00 86 1010.9
20260509042049 21 177 3.2 4.8 0.00 0.00 0.00 86 1011.0
20260509041555 21 219 1.6 6.4 0.00 0.00 0.00 86 1011.0
20260509041552 21 187 0.0 0.0 0.00 0.00 0.00 86 1011.1
20260509041050 21 0 0.0 0.0 0.00 0.00 0.00 86 1011.1
20260509040547 21 0 0.0 0.0 0.00 0.00 0.00 86 1011.3
20260509040054 21 227 0.0 4.8 0.00 0.00 0.00 86 1011.1
20260509035550 21 0 0.0 1.6 0.00 0.00 0.00 85 1011.2
20260509035049 21 0 0.0 1.6 0.00 0.00 0.00 86 1011.2
20260509034601 21 0 0.0 0.0 0.00 0.00 0.00 86 1011.3
20260509034553 21 0 0.0 1.6 0.00 0.00 0.00 86 1011.0
20260509034050 21 0 0.0 3.2 0.00 0.00 0.00 86 1011.0
20260509033549 21 0 0.0 4.8 0.00 0.00 0.00 86 1011.0
20260509033053 21 279 1.6 4.8 0.00 0.00 0.00 86 1010.9
20260509032549 21 279 1.6 4.8 0.00 0.00 0.00 85 1010.8
20260509032046 21 278 3.2 6.4 0.00 0.00 0.00 86 1010.7
20260509031602 21 227 1.6 3.2 0.00 0.00 0.00 86 1010.9
20260509031553 21 244 3.2 6.4 0.00 0.00 0.00 86 1010.6
20260509031050 21 132 3.2 4.8 0.00 0.00 0.00 86 1010.7
20260509030546 21 132 1.6 4.8 0.00 0.00 0.00 85 1010.5
20260509030057 21 132 1.6 3.2 0.00 0.00 0.00 85 1010.5
20260509030055 21 0 0.0 3.2 0.00 0.00 0.00 86 1010.5
20260509025545 21 132 1.6 3.2 0.00 0.00 0.00 85 1010.2
20260509025046 21 131 0.0 3.2 0.00 0.00 0.00 85 1010.1
20260509024556 21 0 0.0 3.2 0.00 0.00 0.00 85 1010.1
20260509024554 21 0 0.0 1.6 0.00 0.00 0.00 85 1010.3
20260509024049 21 132 1.6 3.2 0.00 0.00 0.00 85 1010.1
20260509023550 21 131 1.6 3.2 0.00 0.00 0.00 84 1010.0
20260509023059 21 227 1.6 3.2 0.00 0.00 0.00 84 1010.2
20260509023054 22 131 0.0 3.2 0.00 0.00 0.00 84 1009.9
20260509022549 22 131 0.0 3.2 0.00 0.00 0.00 83 1009.9
20260509022050 22 0 1.6 3.2 0.00 0.00 0.00 83 1009.9
20260509021605 21 0 0.0 0.0 0.00 0.00 0.00 83 1009.9
20260509021553 22 131 1.6 3.2 0.00 0.00 0.00 83 1009.7
20260509021049 22 131 0.0 3.2 0.00 0.00 0.00 83 1009.6
20260509020545 22 0 0.0 3.2 0.00 0.00 0.00 82 1009.8
20260509020056 22 0 0.0 3.2 0.00 0.00 0.00 82 1009.7
20260509020053 22 0 0.0 0.0 0.00 0.00 0.00 82 1009.7
20260509015546 22 131 1.6 6.4 0.00 0.00 0.00 82 1009.6
20260509015047 22 131 1.6 6.4 0.00 0.00 0.00 81 1009.5
20260509014553 22 131 3.2 6.4 0.00 0.00 0.00 81 1009.6
20260509014550 22 0 0.0 1.6 0.00 0.00 0.00 81 1009.7
20260509014047 22 132 3.2 6.4 0.00 0.00 0.00 81 1009.5
20260509013545 22 134 1.6 6.4 0.00 0.00 0.00 81 1009.3
20260509013109 22 227 0.0 4.8 0.00 0.00 0.00 81 1009.5
20260509013058 22 134 3.2 6.4 0.00 0.00 0.00 81 1009.5
20260509012549 22 131 3.2 11.3 0.00 0.00 0.00 81 1009.4
20260509012049 22 134 3.2 14.5 0.00 0.00 0.00 81 1009.3
20260509011557 22 136 4.8 14.5 0.00 0.00 0.00 80 1009.4
20260509011549 23 0 0.0 4.8 0.00 0.00 0.00 80 1009.4
20260509011049 23 111 6.4 14.5 0.00 0.00 0.00 80 1009.3
20260509010549 23 123 8.0 16.1 0.00 0.00 0.00 79 1009.3
20260509010054 23 118 8.0 16.1 0.00 0.00 0.00 79 1009.2
20260509010050 23 227 1.6 9.7 0.00 0.00 0.00 79 1009.3
20260509005549 23 110 6.4 12.9 0.00 0.00 0.00 79 1009.1
20260509005048 23 107 6.4 11.3 0.00 0.00 0.00 79 1009.2
20260509004602 23 107 4.8 14.5 0.00 0.00 0.00 78 1009.1
20260509004548 23 230 1.6 17.7 0.00 0.00 0.00 78 1009.3
20260509004049 23 109 4.8 14.5 0.00 0.00 0.00 78 1009.1
20260509003548 23 128 6.4 19.3 0.00 0.00 0.00 78 1009.0
20260509003053 23 114 3.2 19.3 0.00 0.00 0.00 78 1009.0
20260509003047 23 213 8.0 24.1 0.00 0.00 0.00 78 1009.1
20260509002548 23 111 11.3 19.3 0.00 0.00 0.00 78 1009.0
20260509002051 23 121 11.3 24.1 0.00 0.00 0.00 78 1008.8
20260509001554 23 146 12.9 25.7 0.00 0.00 0.00 77 1008.8
20260509001550 23 213 9.7 20.9 0.00 0.00 0.00 77 1009.0
20260509001048 23 123 17.7 25.7 0.00 0.00 0.00 76 1008.9
20260509000548 24 119 16.1 25.7 0.00 0.00 0.00 76 1009.0
20260509000054 24 228 9.7 20.9 0.00 0.00 0.00 77 1009.0
20260508235549 24 92 17.7 25.7 0.00 0.00 0.00 76 1009.0
20260508235048 25 96 14.5 20.9 0.00 0.00 0.00 75 1009.0
20260508234554 25 132 11.3 19.3 0.00 0.00 0.00 75 1008.9
20260508234550 24 225 6.4 14.5 0.00 0.00 0.00 77 1009.2
20260508234049 25 78 14.5 19.3 0.00 0.00 0.00 75 1009.0
20260508233549 25 75 12.9 22.5 0.00 0.00 0.00 74 1009.1
20260508233054 25 98 9.7 22.5 0.00 0.00 0.00 74 1009.1
20260508233048 24 183 6.4 19.3 0.00 0.00 0.00 77 1009.4
20260508232548 25 69 14.5 22.5 0.00 0.00 0.00 73 1009.0
20260508232048 25 115 12.9 19.3 0.00 0.00 0.00 73 1008.8
20260508231600 25 96 6.4 19.3 0.00 0.00 0.00 73 1008.8
20260508231554 24 202 6.4 17.7 0.00 0.00 0.00 76 1009.1
20260508231050 25 74 11.3 19.3 0.00 0.00 0.00 74 1008.8
20260508230548 25 97 9.7 17.7 0.00 0.00 0.00 73 1008.9
20260508230059 25 62 9.7 17.7 0.00 0.00 0.00 72 1008.9
20260508225548 25 91 6.4 17.7 0.00 0.00 0.00 73 1009.0
20260508225048 25 88 8.0 17.7 0.00 0.00 0.00 74 1009.1
20260508224606 23 141 3.2 11.3 0.00 0.00 0.00 77 1009.8
20260508224550 24 76 9.7 17.7 0.00 0.00 0.00 74 1009.2
20260508224048 24 65 6.4 14.5 0.00 0.00 0.00 74 1009.5
20260508223549 24 56 4.8 14.5 0.00 0.00 0.00 74 1009.5
20260508223051 24 57 4.8 9.7 0.00 0.00 0.00 75 1009.7
20260508222548 23 36 4.8 11.3 0.00 0.00 0.00 75 1009.7
20260508222048 23 360 6.4 11.3 0.00 0.00 0.00 76 1009.8
20260508221557 23 27 6.4 11.3 0.00 0.00 0.00 75 1009.8
20260508221049 23 53 3.2 8.0 0.00 0.00 0.00 76 1009.8
20260508220548 22 360 1.6 8.0 0.00 0.00 0.00 78 1010.0
20260508220055 23 80 4.8 6.4 0.00 0.00 0.00 75 1010.5
20260508215548 22 350 4.8 12.9 0.00 0.00 0.00 79 1010.2
20260508215048 22 290 4.8 12.9 0.00 0.00 0.00 79 1010.4
20260508214555 22 74 1.6 6.4 0.00 0.00 0.00 76 1010.7
20260508214048 22 304 8.0 14.5 0.00 0.00 0.00 78 1010.4
20260508213549 22 331 6.4 9.7 0.00 0.00 0.00 78 1010.5
20260508213112 22 71 1.6 6.4 0.00 0.00 0.00 76 1010.9
20260508213054 22 315 4.8 8.0 0.00 0.00 0.00 78 1010.5
20260508212548 22 331 4.8 8.0 0.00 0.00 0.00 78 1010.5
20260508212048 22 350 4.8 8.0 0.00 0.00 0.00 78 1010.7
20260508211554 22 360 3.2 9.7 0.00 0.00 0.00 78 1010.7
20260508211552 22 0 0.0 4.8 0.00 0.00 0.00 77 1011.0
20260508211049 22 350 3.2 9.7 0.00 0.00 0.00 78 1010.8
20260508210551 22 344 3.2 11.3 0.00 0.00 0.00 77 1010.8
20260508210055 22 345 4.8 12.9 0.00 0.00 0.00 77 1010.9
20260508205548 22 292 6.4 12.9 0.00 0.00 0.00 77 1010.9
20260508205048 22 295 4.8 11.3 0.00 0.00 0.00 78 1011.0
20260508204556 22 255 4.8 11.3 0.00 0.00 0.00 76 1011.2
20260508204553 22 0 1.6 4.8 0.00 0.00 0.00 75 1011.4
20260508204049 22 44 0.0 6.4 0.00 0.00 0.00 75 1011.4
20260508203548 22 65 3.2 6.4 0.00 0.00 0.00 73 1011.3
20260508203109 22 259 1.6 4.8 0.00 0.00 0.00 76 1011.5
20260508203100 22 54 1.6 6.4 0.00 0.00 0.00 74 1011.3
20260508202548 22 57 1.6 6.4 0.00 0.00 0.00 74 1011.4
20260508202049 22 37 3.2 6.4 0.00 0.00 0.00 74 1011.2
20260508201600 22 343 3.2 8.0 0.00 0.00 0.00 75 1011.4
20260508201553 22 0 0.0 6.4 0.00 0.00 0.00 77 1011.5
20260508201048 22 352 3.2 8.0 0.00 0.00 0.00 74 1011.4
20260508200548 22 49 3.2 9.7 0.00 0.00 0.00 74 1011.5
20260508200055 22 259 4.8 9.7 0.00 0.00 0.00 76 1011.5
20260508200051 22 38 3.2 9.7 0.00 0.00 0.00 75 1011.5
20260508195547 22 72 4.8 9.7 0.00 0.00 0.00 75 1011.7
20260508195052 22 37 4.8 12.9 0.00 0.00 0.00 74 1011.6
20260508194555 21 0 3.2 9.7 0.00 0.00 0.00 77 1011.6
20260508194548 22 45 4.8 12.9 0.00 0.00 0.00 74 1011.5
20260508194048 23 44 3.2 12.9 0.00 0.00 0.00 73 1011.5
20260508193548 22 69 4.8 12.9 0.00 0.00 0.00 73 1011.5
20260508193126 21 261 3.2 6.4 0.00 0.00 0.00 77 1011.9
20260508193054 22 49 1.6 6.4 0.00 0.00 0.00 74 1011.6
20260508192552 22 30 3.2 6.4 0.00 0.00 0.00 74 1011.7
20260508192049 22 52 0.0 4.8 0.00 0.00 0.00 73 1012.0
20260508191553 21 72 1.6 4.8 0.00 0.00 0.00 75 1012.1
20260508191551 22 259 3.2 12.9 0.00 0.00 0.00 75 1012.1
20260508191048 21 103 1.6 4.8 0.00 0.00 0.00 75 1012.1
20260508190548 21 194 1.6 6.4 0.00 0.00 0.00 73 1012.4
20260508190054 21 234 4.8 9.7 0.00 0.00 0.00 76 1012.3
20260508190050 21 159 1.6 8.0 0.00 0.00 0.00 74 1012.4
20260508185552 21 0 1.6 9.7 0.00 0.00 0.00 76 1012.5
20260508185048 21 123 3.2 9.7 0.00 0.00 0.00 76 1012.5
20260508184622 21 241 3.2 11.3 0.00 0.00 0.00 76 1012.4
20260508184554 20 46 1.6 6.4 0.00 0.00 0.00 78 1012.4
20260508184050 20 77 1.6 6.4 0.00 0.00 0.00 77 1012.6
20260508183548 20 0 1.6 6.4 0.00 0.00 0.00 77 1013.0
20260508183052 20 118 1.6 9.7 0.00 0.00 0.00 78 1012.9
20260508183048 21 194 3.2 9.7 0.00 0.00 0.00 78 1013.0
20260508182549 20 116 3.2 9.7 0.00 0.00 0.00 80 1013.0
20260508182048 19 78 1.6 6.4 0.00 0.00 0.00 80 1012.8
20260508181558 19 63 3.2 11.3 0.00 0.00 0.00 79 1012.9
20260508181549 20 257 4.8 11.3 0.00 0.00 0.00 78 1013.2
20260508181048 19 129 1.6 11.3 0.00 0.00 0.00 78 1013.3
20260508180550 20 122 6.4 11.3 0.00 0.00 0.00 78 1013.3
20260508180100 20 252 3.2 12.9 0.00 0.00 0.00 77 1013.7
20260508180053 20 70 4.8 11.3 0.00 0.00 0.00 77 1013.4
20260508175548 20 115 4.8 12.9 0.00 0.00 0.00 77 1013.5
20260508175048 20 107 1.6 14.5 0.00 0.00 0.00 76 1013.6
20260508174608 20 77 6.4 16.1 0.00 0.00 0.00 75 1013.7
20260508174052 20 126 9.7 16.1 0.00 0.00 0.00 74 1013.7
20260508173548 20 83 6.4 19.3 0.00 0.00 0.00 74 1013.7
20260508173104 20 164 4.8 12.9 0.00 0.00 0.00 76 1014.0
20260508173051 20 96 11.3 19.3 0.00 0.00 0.00 74 1013.7
20260508172549 20 63 9.7 19.3 0.00 0.00 0.00 73 1013.6
20260508172049 20 36 6.4 14.5 0.00 0.00 0.00 75 1013.5
20260508171618 20 98 6.4 12.9 0.00 0.00 0.00 76 1014.0
20260508171552 20 45 6.4 16.1 0.00 0.00 0.00 74 1013.7
20260508171048 20 82 8.0 16.1 0.00 0.00 0.00 75 1013.7
20260508170548 19 62 8.0 16.1 0.00 0.00 0.00 75 1013.8
20260508170054 19 5 6.4 12.9 0.00 0.00 0.00 75 1013.8
20260508170047 20 141 3.2 9.7 0.00 0.00 0.00 77 1014.4
20260508165548 19 31 6.4 16.1 0.00 0.00 0.00 75 1014.0
20260508165048 19 25 6.4 16.1 0.00 0.00 0.00 76 1014.1
20260508164551 19 175 6.4 12.9 0.00 0.00 0.00 76 1014.7
20260508164549 19 19 4.8 12.9 0.00 0.00 0.00 77 1014.2
20260508164048 18 58 3.2 9.7 0.00 0.00 0.00 79 1014.1
20260508163548 18 41 4.8 12.9 0.00 0.00 0.00 79 1014.3
20260508163057 19 177 6.4 12.9 0.00 0.00 0.00 77 1014.8
20260508163053 18 43 4.8 14.5 0.00 0.00 0.00 79 1014.5
20260508162548 18 69 6.4 16.1 0.00 0.00 0.00 79 1014.6
20260508162048 18 18 8.0 16.1 0.00 0.00 0.00 79 1014.6
20260508161600 19 165 4.8 12.9 0.00 0.00 0.00 78 1015.0
20260508161552 18 32 11.3 16.1 0.00 0.00 0.00 79 1014.6
20260508161048 18 13 8.0 16.1 0.00 0.00 0.00 80 1014.5
20260508160551 18 9 8.0 12.9 0.00 0.00 0.00 80 1014.7
20260508160056 18 136 4.8 12.9 0.00 0.00 0.00 78 1015.3
20260508160049 18 16 6.4 12.9 0.00 0.00 0.00 80 1014.8
20260508155547 18 5 6.4 12.9 0.00 0.00 0.00 79 1014.8
20260508155050 18 360 6.4 12.9 0.00 0.00 0.00 79 1014.8
20260508154557 18 360 4.8 12.9 0.00 0.00 0.00 80 1014.7
20260508154549 18 128 3.2 11.3 0.00 0.00 0.00 80 1015.2
20260508154048 17 9 6.4 12.9 0.00 0.00 0.00 80 1014.7
20260508153549 17 333 6.4 12.9 0.00 0.00 0.00 80 1014.7
20260508153052 17 336 4.8 12.9 0.00 0.00 0.00 80 1014.9
20260508152548 17 5 4.8 9.7 0.00 0.00 0.00 80 1014.9
20260508152048 17 21 4.8 9.7 0.00 0.00 0.00 80 1014.9
20260508151556 18 119 4.8 8.0 0.00 0.00 0.00 80 1015.2
20260508151554 17 33 6.4 11.3 0.00 0.00 0.00 81 1015.0
20260508151050 17 13 6.4 11.3 0.00 0.00 0.00 81 1015.0
20260508150549 17 31 3.2 8.0 0.00 0.00 0.00 82 1015.0
20260508150053 17 34 3.2 6.4 0.00 0.00 0.00 81 1015.0
20260508150051 18 0 1.6 11.3 0.00 0.00 0.00 79 1015.6
20260508145549 17 355 3.2 8.0 0.00 0.00 0.00 81 1015.1
20260508145049 17 352 3.2 8.0 0.00 0.00 0.00 81 1014.9
20260508144551 18 143 3.2 9.7 0.00 0.00 0.00 79 1015.1
20260508144049 16 293 3.2 4.8 0.00 0.00 0.00 81 1014.8
20260508143549 16 0 1.6 6.4 0.00 0.00 0.00 81 1014.9
20260508143113 16 306 1.6 8.0 0.00 0.00 0.00 81 1015.0
20260508143053 18 107 1.6 6.4 0.00 0.00 0.00 80 1015.2
20260508142551 16 309 3.2 8.0 0.00 0.00 0.00 82 1014.9
20260508142051 16 317 4.8 8.0 0.00 0.00 0.00 82 1014.9
20260508141614 16 317 3.2 8.0 0.00 0.00 0.00 81 1014.7
20260508141552 18 108 4.8 9.7 0.00 0.00 0.00 81 1015.1
20260508141050 16 332 3.2 8.0 0.00 0.00 0.00 81 1015.0
20260508140551 16 309 3.2 8.0 0.00 0.00 0.00 83 1015.0
20260508140056 17 219 3.2 6.4 0.00 0.00 0.00 84 1015.3
20260508140054 16 323 3.2 6.4 0.00 0.00 0.00 83 1015.1
20260508135550 16 312 3.2 6.4 0.00 0.00 0.00 84 1015.1